Dewpoint
73 73 72 72 73 72 68 67 58 61 60 55 57 57 58 63 62 61 62 64 62 65 66 66 64 66 63 59 58 56 54 56 55 50 57 65 66 65 66 67 68 69 71 72 74 76 77 78 78 78 78 78 77 77 77 77 77 77 77 77 77 76 76 76 76 76 76 76 76 76 75 76 75 74 74 74 74 75 75 75 75 75 76 76 76 77 76 75 74 74 74 74 74 74 74 74 74
72 72 72 74 72 69 65 69 60 59 59 57 55 59 58 62 61 60 60 61 62 65 67 67 67 67 67 68 56 54 56 59 62 62 63 64 63 65 67 68 68 69 70 72 73 74 75 77 78 78 78 77 77 77 77 77 77 77 77 77 76 76 76 76 76 76 76 76 76 76 75 75 75 75 73 73 73 73 75 75 76 76 76 76 76 76 76 75 75 74 74 74 74 74 74 74 74
71 72 72 73 69 66 70 66 56 57 54 54 54 57 62 60 60 62 63 64 66 66 66 65 66 67 65 61 59 58 54 58 61 62 61 62 64 66 66 67 67 69 71 71 72 73 75 76 78 78 78 77 77 77 77 77 77 77 77 76 76 76 76 76 75 76 76 76 76 75 75 75 75 75 75 75 74 74 73 76 76 76 76 76 76 76 76 76 75 75 75 74 75 76 75 75 75
72 75 71 68 67 67 63 63 57 57 53 53 53 59 60 59 61 63 65 66 66 64 64 63 64 67 64 61 61 55 55 57 61 62 62 63 66 66 66 67 70 69 69 71 72 72 74 78 78 78 78 77 77 77 77 77 77 77 76 76 76 76 76 76 76 76 76 76 76 76 76 76 76 76 75 74 75 74 73 75 76 76 75 76 75 76 76 76 76 75 75 76 76 76 76 76 75
73 74 70 70 68 61 62 59 60 60 53 54 55 59 60 60 62 64 65 67 65 64 64 65 64 67 68 67 66 57 56 59 59 61 62 64 65 66 66 67 67 67 67 70 71 72 75 78 78 78 78 77 77 77 77 76 76 76 76 76 76 76 75 76 76 76 76 76 76 75 75 76 76 76 76 75 74 75 73 74 76 75 75 75 75 75 76 76 76 76 76 76 77 77 76 76 76
73 73 74 73 66 70 64 59 58 58 60 62 59 59 61 63 63 64 65 67 66 64 66 64 64 64 65 67 69 61 65 57 60 60 62 64 65 66 67 67 66 65 66 68 71 74 76 78 78 78 77 77 77 76 76 76 76 76 76 76 76 76 76 76 76 76 76 76 76 75 75 76 76 76 76 76 75 75 74 75 75 75 75 75 75 75 77 76 76 76 76 77 77 77 76 76 76
72 73 72 70 68 69 59 59 56 59 61 62 61 61 64 63 64 65 65 64 66 66 68 65 66 65 64 68 66 67 68 56 61 62 62 65 67 67 68 67 64 64 65 68 73 75 76 78 78 77 77 77 76 76 76 76 76 76 76 76 76 76 76 76 76 76 75 75 75 75 75 76 76 76 76 76 75 75 74 74 75 75 75 75 75 75 75 76 77 77 77 77 77 77 77 76 77
76 69 69 64 61 63 58 61 58 61 60 62 63 63 64 65 65 64 63 64 63 65 65 67 65 65 64 68 62 67 67 64 63 64 63 64 66 67 67 66 65 64 66 71 73 75 79 78 77 77 77 76 76 76 76 75 75 75 76 76 75 76 76 76 76 76 75 76 76 76 76 76 76 76 76 76 75 74 74 74 75 75 75 75 75 76 76 76 77 77 78 78 78 77 77 76 76
73 70 71 64 61 61 58 57 60 62 62 63 64 65 66 65 65 64 64 64 64 65 65 65 64 62 64 65 65 67 64 63 61 65 64 64 65 67 67 65 64 66 69 72 73 75 76 78 77 77 77 76 76 75 75 75 75 75 75 75 75 76 76 76 75 75 74 75 75 76 75 76 76 76 76 76 75 75 75 74 75 75 75 75 75 76 76 77 77 77 77 77 77 77 77 76 76
71 70 64 63 62 57 57 60 59 60 62 63 63 64 65 65 65 65 64 64 64 64 64 67 65 63 65 64 64 67 64 65 61 62 63 65 64 66 66 66 67 68 70 72 74 74 75 78 77 77 77 76 76 75 75 75 74 75 75 75 75 76 75 75 75 73 74 74 74 75 76 76 76 76 76 76 75 75 75 75 75 75 75 75 76 76 77 77 77 78 78 77 77 77 78 77 77
66 69 68 60 58 56 53 56 60 60 62 63 64 65 65 65 65 64 65 64 66 65 66 66 64 64 65 66 67 70 71 60 59 61 62 62 62 65 67 68 70 70 70 72 73 73 75 75 77 76 76 76 76 75 75 75 74 75 75 75 76 75 75 75 73 75 74 74 74 75 76 76 76 76 76 76 75 75 75 75 75 75 75 76 76 76 77 78 78 78 78 78 78 78 78 78 78
64 65 66 58 57 56 55 59 59 60 62 63 63 66 66 66 65 63 64 63 65 65 65 67 64 66 65 65 65 69 72 60 59 61 61 61 63 68 69 68 69 70 71 71 72 73 72 75 75 76 76 76 76 75 75 75 75 74 75 75 75 75 75 75 75 74 74 74 73 75 76 76 76 76 75 75 75 76 76 76 76 75 75 75 76 77 77 78 78 78 78 78 78 78 79 78 79
64 66 63 60 57 57 55 56 61 59 61 62 63 66 67 65 63 63 64 65 65 65 65 68 68 67 63 64 67 71 71 61 61 62 61 61 63 65 66 67 67 68 69 71 72 71 71 72 72 75 75 76 75 75 75 75 75 75 75 75 75 75 75 75 75 75 74 75 76 77 77 77 77 76 75 75 76 76 76 76 76 76 76 76 77 77 78 78 78 78 78 78 78 79 78 79 79
66 67 64 59 61 60 57 57 61 58 59 62 64 66 65 64 65 64 64 63 65 65 67 68 67 67 65 65 66 67 66 63 60 61 61 62 62 63 64 65 66 68 68 69 71 70 70 70 72 73 74 74 74 75 75 75 75 75 75 75 75 76 76 75 75 75 75 76 76 76 76 76 76 76 76 76 76 77 77 76 76 76 77 77 77 77 77 78 78 79 79 79 79 79 79 79 79
67 69 62 59 58 54 57 57 60 58 60 62 65 66 65 66 66 66 65 64 65 69 70 70 68 65 62 63 64 67 61 61 61 61 61 61 60 60 60 62 64 66 67 69 69 69 69 70 71 73 74 73 73 73 75 75 76 74 75 75 75 75 75 76 75 75 76 76 76 76 76 76 76 76 76 76 77 77 77 77 77 77 77 77 76 77 77 78 78 79 80 79 79 80 80 80 79
69 69 63 60 56 54 54 55 59 59 60 63 65 67 65 67 68 65 66 67 67 70 70 66 69 67 65 64 65 66 60 60 60 61 61 61 60 59 59 59 60 62 63 65 68 68 68 69 69 71 72 71 72 72 73 75 76 75 75 75 76 76 76 75 76 76 77 77 76 76 76 76 75 75 77 77 78 78 78 77 77 78 78 77 77 78 78 78 79 79 80 80 80 80 81 80 80
69 66 61 53 53 53 55 56 57 56 62 65 67 65 64 64 67 68 68 69 67 67 67 68 68 69 66 66 66 64 60 59 60 60 61 61 60 59 59 59 60 60 61 63 65 67 66 67 67 70 70 69 70 71 72 75 75 75 75 76 76 76 75 76 77 77 77 76 76 77 77 76 77 77 74 74 77 77 78 78 79 79 78 79 78 79 79 79 80 80 80 81 81 80 81 81 80
68 62 57 55 58 56 57 58 58 61 62 64 64 67 65 63 66 67 69 67 67 67 67 68 70 69 69 67 67 66 59 58 59 60 61 61 60 59 58 59 58 59 59 60 62 62 63 64 67 68 67 67 66 69 70 73 75 75 75 75 75 75 76 76 77 76 76 77 77 77 77 76 74 75 74 68 73 76 72 78 79 79 79 79 79 79 80 80 81 81 81 81 82 81 82 80 79
64 61 55 55 57 58 60 61 60 62 63 64 64 67 64 64 66 67 65 65 66 65 67 68 68 69 68 67 67 64 58 58 59 61 61 60 60 58 58 59 59 58 59 59 60 58 60 62 65 65 65 66 65 66 69 73 75 75 75 75 74 75 77 77 77 77 77 77 77 75 77 71 69 75 77 71 71 70 70 74 76 77 78 79 79 80 80 81 81 82 82 81 82 82 80 80 80
66 59 54 55 56 59 61 63 61 63 65 64 64 66 64 66 65 67 64 64 66 65 65 66 67 68 67 66 65 62 58 58 59 61 61 61 60 59 58 58 58 59 58 59 58 55 58 59 61 63 60 63 64 65 66 74 72 73 73 75 76 77 77 77 77 78 76 76 71 74 70 71 70 75 70 71 72 72 74 76 78 78 79 80 81 81 80 80 81 83 83 81 77 79 79 79 78
58 62 59 55 55 55 59 63 63 63 64 65 65 65 65 67 66 65 66 65 66 67 67 65 66 66 67 65 62 60 58 58 59 60 60 60 60 60 58 59 60 62 62 61 61 57 57 58 59 59 59 57 61 63 63 70 71 71 74 74 74 76 77 76 75 76 75 74 72 72 67 66 65 73 74 76 74 75 76 76 73 77 77 77 76 76 76 72 76 75 74 75 76 76 74 76 76
58 57 56 54 55 55 60 64 65 62 64 66 64 62 62 65 67 66 66 64 64 67 68 66 67 66 66 64 61 58 57 59 58 59 59 59 59 59 60 60 61 64 64 64 62 61 59 58 57 56 58 56 62 63 63 67 71 69 69 71 72 73 72 71 72 73 70 73 71 67 69 68 72 73 75 73 77 75 75 78 74 72 78 75 73 76 77 73 77 75 73 73 76 76 74 75 77
54 57 56 54 54 56 59 62 64 63 64 65 64 66 66 67 65 66 66 64 65 67 68 67 68 67 67 65 61 57 57 58 58 58 58 58 58 59 59 60 60 61 62 63 64 63 60 58 59 56 57 57 61 62 66 66 67 69 68 70 70 71 69 72 69 68 69 71 70 69 67 69 67 67 69 72 73 74 74 75 75 74 72 75 72 77 76 76 72 76 73 75 76 75 72 72 73
55 54 53 53 56 57 58 64 64 61 66 66 66 67 64 64 63 67 66 66 67 68 68 69 68 68 66 63 59 57 56 56 57 57 58 58 57 58 58 58 58 60 61 61 60 60 59 56 58 56 57 57 63 60 63 64 66 64 65 71 71 70 71 70 66 65 72 71 70 68 70 72 70 72 71 73 75 75 73 76 75 79 70 75 75 76 71 74 74 72 74 73 72 71 69 71 71
54 52 53 54 56 59 59 58 62 64 66 66 66 66 65 65 65 66 66 68 68 69 69 69 68 67 67 62 58 57 55 55 54 56 56 56 56 56 56 57 57 58 58 58 58 57 57 57 58 56 57 60 59 59 60 62 63 65 64 63 65 69 68 67 64 71 68 70 68 73 70 68 71 76 73 75 73 71 74 77 75 73 76 76 72 75 69 73 74 71 69 70 66 63 67 63 64
53 51 53 53 54 59 60 62 63 63 65 64 64 66 67 67 65 65 66 67 69 70 68 68 68 67 66 63 58 57 56 55 53 53 54 53 54 53 54 54 55 54 56 55 56 56 54 56 56 56 57 59 59 57 66 63 66 66 64 68 69 74 69 67 69 66 65 66 66 69 68 69 69 76 76 71 75 74 73 71 74 71 72 72 70 69 70 69 71 70 66 64 62 63 64 64 64
51 52 53 52 56 59 62 61 64 67 66 66 64 65 66 67 65 63 67 68 69 69 68 68 67 65 64 64 63 58 56 54 54 52 54 52 53 51 53 52 54 51 55 52 54 53 56 55 55 57 57 67 58 57 64 66 68 66 67 64 65 68 68 72 70 65 65 65 69 74 70 72 68 75 73 73 76 70 75 71 75 71 73 65 69 66 67 66 67 64 62 63 68 69 64 64 64
48 52 50 53 55 61 61 63 65 66 63 67 65 65 66 66 65 63 65 68 69 68 68 67 65 65 64 63 60 60 58 54 55 53 54 53 53 51 51 51 52 51 52 51 53 51 55 52 55 57 57 60 63 58 67 64 69 65 72 69 65 66 73 67 65 67 69 69 68 71 71 70 71 69 70 67 68 72 72 70 71 70 72 68 73 68 70 67 68 71 63 63 66 68 66 66 67
47 46 49 52 52 53 57 62 66 65 64 66 65 64 62 65 63 66 67 68 68 68 67 68 67 64 63 62 60 59 57 55 55 54 54 54 52 50 50 51 50 52 51 52 52 51 54 50 55 57 55 59 60 58 58 63 62 62 65 65 67 64 68 69 65 65 69 72 69 71 75 69 75 74 74 70 72 70 72 66 64 74 75 73 73 66 62 70 68 73 68 65 67 68 64 64 63
45 50 49 51 52 51 55 61 67 65 64 67 64 53 55 58 65 67 68 68 69 68 66 67 68 64 62 61 60 58 56 55 54 53 54 52 51 50 50 50 50 50 51 52 50 52 54 51 55 55 54 59 60 60 61 62 62 64 65 61 68 68 63 63 65 68 68 70 72 70 70 70 72 74 73 72 74 66 68 69 68 69 69 72 72 72 65 67 66 65 67 65 67 66 63 64 65
43 49 48 50 47 45 51 61 62 62 66 67 65 54 51 60 66 68 68 68 67 65 64 67 67 64 63 62 61 60 57 55 54 52 52 50 49 48 49 49 49 49 51 51 49 52 52 53 55 54 56 57 59 62 60 61 63 62 62 66 62 66 69 64 61 62 62 63 68 68 71 73 71 73 75 74 67 70 70 74 68 66 72 68 74 74 67 66 66 65 65 64 64 65 64 65 63
47 46 44 50 44 46 50 53 60 61 63 66 63 52 52 58 64 68 68 68 67 64 65 66 67 66 66 62 61 58 58 54 54 52 51 50 49 48 47 48 48 49 49 51 48 50 48 53 55 54 56 57 58 63 63 68 63 64 65 64 65 67 62 62 61 62 63 62 65 69 72 74 73 72 75 72 70 68 65 66 72 73 72 72 65 75 75 72 66 65 66 66 67 65 66 65 62
48 42 49 45 46 44 48 51 49 56 61 62 62 53 57 60 65 67 68 67 67 64 65 66 67 68 67 65 64 61 59 57 55 53 52 50 50 48 47 48 49 50 50 50 51 50 51 54 55 55 57 56 53 58 60 64 66 63 66 61 62 65 61 61 62 67 72 65 64 65 71 71 74 72 71 73 73 68 65 66 64 64 66 68 69 62 68 68 65 63 69 71 70 66 64 63 61
41 45 43 43 41 44 45 44 45 55 57 57 58 53 53 57 62 66 67 67 67 64 64 66 67 67 67 68 67 63 61 57 55 55 52 51 51 51 49 54 49 48 49 48 50 51 51 52 54 54 57 57 54 60 62 62 61 66 65 65 68 61 60 61 61 62 67 61 62 66 70 69 74 73 71 74 74 67 69 69 66 68 68 67 68 64 65 65 67 68 68 69 67 66 64 63 56
44 43 43 45 45 47 44 40 48 50 51 52 56 55 56 59 62 65 66 67 66 65 64 65 66 66 68 67 69 63 60 58 55 55 52 52 52 52 51 50 49 48 49 49 48 52 52 51 52 59 53 58 58 61 69 63 60 66 62 63 62 67 66 62 63 60 59 69 63 68 73 71 72 72 73 74 74 68 67 68 69 70 71 69 67 67 68 69 69 68 68 66 69 67 65 63 55
41 43 41 39 36 40 39 38 36 38 42 42 53 54 56 61 61 63 65 67 65 65 65 66 66 67 67 68 68 67 66 59 58 55 54 53 53 52 53 53 50 52 49 53 52 52 55 49 51 60 58 55 58 61 62 60 62 63 61 62 63 63 63 66 69 63 71 60 65 66 70 72 71 75 75 75 75 71 67 68 72 67 70 68 68 66 67 67 67 69 69 66 66 65 65 57 56
39 41 42 39 35 35 35 36 36 36 36 45 51 48 57 60 61 62 64 66 66 64 65 64 66 66 67 68 69 68 66 63 60 58 56 55 54 53 55 54 51 52 53 52 50 52 54 53 55 59 59 59 58 60 60 59 62 63 63 60 60 59 63 61 60 64 63 61 66 63 71 66 71 70 73 73 71 75 72 71 71 73 69 71 71 69 67 68 69 69 68 71 64 65 57 51 56
38 37 37 36 32 33 33 33 36 37 36 40 48 50 54 58 61 62 63 65 63 64 63 64 65 66 66 67 68 69 67 67 65 60 58 55 55 55 56 55 58 51 56 53 54 54 55 56 55 54 59 61 59 58 59 59 65 62 62 61 58 59 61 62 60 64 59 61 70 71 72 71 72 70 78 77 75 73 75 68 70 71 71 74 74 71 71 74 71 67 65 65 66 60 54 52 56
36 35 35 33 32 31 30 30 31 35 36 40 51 47 50 58 61 62 63 64 64 64 63 63 64 65 65 66 67 68 69 67 63 59 59 57 56 55 56 56 56 54 55 54 56 55 54 56 61 61 58 59 60 59 61 63 64 66 63 63 62 59 59 61 59 60 61 62 64 66 72 72 71 71 71 74 70 68 72 72 69 74 74 73 76 72 71 71 69 64 67 67 61 56 55 55 61
32 31 31 30 32 28 30 30 32 33 35 37 37 51 55 57 59 62 63 63 64 67 65 66 65 64 65 64 66 66 66 66 65 63 63 58 57 58 57 58 58 57 57 56 56 57 56 63 65 65 63 60 65 64 68 61 66 72 74 73 72 70 69 73 68 67 63 60 60 59 71 70 71 66 69 66 67 71 74 76 69 67 79 75 70 73 74 64 67 64 65 66 64 58 55 56 57
27 27 26 28 27 26 23 25 26 28 33 31 36 49 53 54 57 58 63 63 64 65 65 66 67 67 67 67 67 66 66 66 66 66 65 60 57 58 59 60 59 58 57 58 58 58 57 57 63 67 66 62 62 68 68 70 75 74 76 75 74 73 70 68 64 62 64 70 61 61 61 68 67 68 65 72 69 74 74 78 73 70 71 73 70 68 72 63 62 64 66 65 61 60 57 57 59
25 27 29 27 28 27 26 26 25 28 31 36 37 40 42 54 53 53 59 63 63 64 63 64 65 64 66 66 65 66 67 66 66 66 68 65 60 62 61 62 60 60 60 61 60 59 59 58 60 66 66 62 59 64 68 72 74 75 74 75 73 72 69 68 62 60 57 56 58 60 62 64 64 69 67 68 68 70 74 75 76 72 69 72 66 67 66 65 65 64 62 60 58 61 62 61 59
24 27 28 25 25 26 26 23 23 28 29 39 36 37 36 50 52 55 57 58 62 64 63 63 64 66 68 67 65 64 65 65 65 66 66 63 60 67 61 63 62 61 63 61 60 58 59 58 61 63 66 65 60 66 68 74 72 72 69 67 64 65 65 61 62 59 55 55 59 66 63 65 67 67 69 70 70 77 75 76 77 73 76 72 71 71 69 63 65 65 63 58 60 64 66 65 62
25 25 24 26 23 25 24 24 24 27 26 27 34 31 32 45 47 56 55 56 61 62 63 63 65 64 65 66 67 66 65 66 65 66 66 64 62 62 61 61 61 63 63 59 58 58 59 62 62 64 68 67 63 64 68 73 73 72 72 67 62 61 57 62 61 64 61 70 66 67 64 61 65 68 68 74 71 72 73 73 76 75 71 70 67 68 66 67 67 66 65 62 68 69 66 64 64
22 23 26 27 25 25 24 24 24 24 25 28 30 31 37 40 46 49 51 52 56 59 61 63 64 63 64 64 67 66 67 66 65 65 65 64 65 64 61 61 62 63 61 58 58 58 59 60 64 64 66 68 66 66 67 70 73 72 70 65 69 64 61 59 67 73 69 67 64 63 67 64 68 68 72 72 72 70 75 73 70 73 74 72 72 66 68 65 66 66 67 64 65 67 65 65 69
24 26 27 26 25 23 22 22 23 26 27 31 32 28 34 40 43 47 50 48 55 57 58 60 62 63 63 64 65 66 66 66 65 66 65 63 66 65 61 62 62 62 62 61 58 58 59 61 64 63 65 65 65 67 68 71 73 73 71 72 70 72 69 68 64 70 78 74 69 68 69 67 61 65 71 74 76 70 71 73 69 68 67 67 66 68 71 71 69 67 65 63 66 68 68 65 65
28 26 26 25 23 23 23 24 26 25 26 30 29 27 26 35 42 44 47 49 48 53 58 59 61 63 62 64 65 65 65 66 65 65 65 65 66 66 64 64 62 61 63 64 60 58 59 60 62 63 67 63 66 67 68 69 71 69 70 72 72 70 69 67 64 68 73 75 73 62 63 65 66 65 66 67 68 66 68 71 64 63 67 71 70 67 68 65 62 60 59 66 66 69 66 66 64
26 25 26 25 24 24 26 25 28 25 25 25 22 23 29 36 38 46 50 50 47 48 57 58 59 61 61 60 61 65 66 66 65 65 66 66 67 66 66 64 63 63 63 62 61 59 59 60 62 65 67 67 66 65 68 67 67 70 69 71 72 71 72 63 69 65 65 68 65 66 69 63 63 61 64 65 65 64 68 69 73 70 70 69 68 69 68 66 64 61 59 64 63 68 70 70 68
22 23 24 16 22 28 27 25 24 24 26 25 26 30 33 38 37 44 47 47 49 54 56 56 57 59 61 61 60 61 64 64 65 65 64 65 66 66 65 63 65 63 63 62 62 62 58 60 61 63 67 67 69 65 68 69 69 68 68 68 72 73 70 73 67 68 65 65 63 63 70 75 75 68 62 60 61 64 71 72 71 72 73 73 76 73 70 70 69 60 65 62 65 71 69 69 66
19 19 19 23 23 22 24 27 30 28 27 26 25 31 33 33 40 47 47 50 49 52 55 54 56 55 59 60 58 60 63 62 64 64 64 65 65 66 66 66 66 65 63 62 62 64 60 59 63 61 66 66 70 68 67 69 69 68 68 67 67 70 71 66 73 61 61 64 64 63 59 59 62 60 60 66 60 62 66 66 69 73 76 75 76 75 71 70 70 63 65 67 62 70 70 71 67
18 18 19 21 23 21 25 24 24 27 29 27 28 28 43 31 41 37 43 53 50 47 49 54 54 57 60 58 58 57 58 61 63 65 64 64 64 64 64 65 65 65 64 62 61 62 64 60 62 66 66 66 68 69 69 69 66 66 67 64 66 65 65 65 65 64 63 61 59 58 62 58 56 59 60 70 72 67 66 69 71 73 73 74 76 73 67 67 70 70 71 70 70 66 70 67 62
16 17 16 15 18 18 15 18 22 28 33 35 36 39 34 35 37 36 41 43 46 48 48 52 55 57 58 58 58 58 56 59 62 65 65 64 65 66 65 64 64 64 67 65 63 65 65 63 62 62 66 64 64 70 68 65 66 64 68 68 66 67 69 64 67 70 71 62 59 57 62 73 62 61 69 68 66 73 70 70 71 72 74 73 72 73 70 68 69 72 75 72 67 62 65 66 65
21 17 16 14 16 16 19 18 16 21 24 30 33 41 41 32 35 33 43 50 45 48 48 51 54 56 58 57 58 57 57 56 58 59 63 64 64 64 63 62 62 64 67 70 71 66 67 69 63 63 65 63 63 67 63 64 65 64 64 64 63 64 63 62 61 61 62 62 65 63 58 59 63 71 62 67 66 73 69 69 71 71 73 73 73 71 68 69 72 71 67 72 68 66 70 66 67
22 19 18 16 15 18 18 17 27 25 26 36 29 33 30 32 32 34 45 43 43 44 48 50 52 55 56 57 57 60 60 61 65 60 61 62 63 64 64 64 62 63 66 67 74 74 71 68 68 65 62 63 63 64 62 62 62 62 62 62 63 63 62 60 61 61 58 60 61 64 63 59 59 59 62 60 63 67 72 72 72 72 71 71 70 68 67 68 70 72 69 70 70 72 72 71 70
19 17 20 17 21 21 23 18 20 23 28 32 31 30 32 33 34 38 38 46 44 41 45 48 48 50 52 56 57 59 61 66 66 64 62 61 61 62 64 64 63 64 65 66 68 74 72 68 72 70 64 62 62 63 62 62 61 61 61 61 61 62 62 62 66 66 60 56 58 58 60 63 60 66 66 76 69 66 68 68 73 71 72 71 69 68 68 69 71 71 67 66 71 73 72 70 68
18 20 20 19 20 21 26 24 22 25 38 30 31 30 38 35 45 36 35 38 44 39 45 47 47 49 57 53 53 59 65 67 65 64 65 61 59 60 61 63 64 62 62 65 67 68 69 73 70 67 67 70 72 67 65 63 62 61 59 61 61 65 67 70 68 68 57 55 56 58 60 58 59 61 65 68 67 67 69 69 68 69 68 68 67 67 67 68 72 77 67 66 68 72 70 70 68
17 19 20 19 19 21 23 27 27 36 37 35 33 34 42 39 37 43 41 38 47 42 50 50 50 51 54 55 55 61 63 65 67 65 64 62 59 57 58 62 64 63 63 64 65 66 66 71 71 68 67 66 67 68 68 67 68 64 62 59 59 60 61 68 66 63 58 56 55 57 58 58 64 63 66 67 65 72 70 69 68 70 68 70 72 70 68 70 74 71 71 72 73 73 71 69 72
16 16 16 11 13 19 21 23 23 31 33 41 32 34 37 35 36 37 42 41 46 49 49 55 59 58 56 52 53 59 64 64 67 65 67 64 69 60 58 60 62 63 63 63 63 64 64 68 68 68 68 71 69 68 68 70 70 66 60 60 60 61 65 69 66 57 57 56 55 56 58 60 59 66 65 65 67 63 68 71 67 68 69 68 73 74 67 70 70 70 69 70 71 72 71 71 72